Regional Weather Roundup
Issued by NWS Little Rock, AR

Home | Current Version | Previous Version | Text Only | Print | Product List | Glossary Off
Versions: 1 2 3 4 5 6 7 8 9 10 11 12 13 14 15 16 17 18 19 20 21 22 23 24 25 26 27 28 29 30 31 32 33 34 35 36 37 38 39 40 41 42 43 44 45 46 47 48 49 50

362
ASUS44 KLZK 200305
RWRLZK

WEATHER ROUNDUP FOR ARKANSAS
NATIONAL WEATHER SERVICE LITTLE ROCK AR
900 PM CST SUN FEB 19 2017

NOTE: "FAIR" INDICATES FEW OR NO CLOUDS BELOW 12,000 FEET WITH NO
SIGNIFICANT WEATHER AND/OR OBSTRUCTIONS TO VISIBILITY.

ARZ001-003-010-029-200400-
NORTHWEST ARKANSAS

CITY           SKY/WX    TMP DP  RH WIND       PRES   REMARKS
FAYETTEVILLE   PTCLDY    66  57  72 SE6       29.98R
FORT SMITH     PTCLDY    65  56  72 NE7       29.96R
HARRISON       CLEAR     59  56  89 SE7       30.03R
BENTONVILLE    PTCLDY    66  55  68 S10G16    29.98S
ROGERS         CLOUDY    67  56  67 SE9       29.99R
SILOAM SPGS    MOCLDY    66  55  68 S12G20    29.96R
HIGHFILL       CLOUDY    67  57  70 SE9       29.97R
SPRINGDALE     CLOUDY    66  57  72 S7        30.00R
$$

ARZ004-005-016-200400-
NORTH CENTRAL ARKANSAS

CITY           SKY/WX    TMP DP  RH WIND       PRES   REMARKS
BATESVILLE     PTCLDY    61  55  82 SE6       30.05S
FLIPPIN        CLEAR     61  52  72 SE5       30.01R
MTN HOME       CLEAR     61  56  83 SE7       30.02S
$$

ARZ040-041-200400-
WEST CENTRAL ARKANSAS

CITY           SKY/WX    TMP DP  RH WIND       PRES   REMARKS
MENA           PTCLDY    55  55 100 CALM      29.98R
MOUNT IDA      CLEAR     64  56  75 E3        29.95F
$$

ARZ009-017-025-026-028-200400-
NORTHEAST ARKANSAS

CITY           SKY/WX    TMP DP  RH WIND       PRES   REMARKS
CORNING        FAIR      59  57  94 E6        30.08S
JONESBORO      CLEAR     56  53  90 CALM      30.07R
NEWPORT        CLOUDY    57  55  93 E8          N/A
WALNUT RIDGE   CLEAR     57  52  82 E7        30.06S
BLYTHEVILLE    PTCLDY    60  53  77 SE6       30.09R
$$

ARZ022-023-033-042-044-200400-
CENTRAL ARKANSAS

CITY           SKY/WX    TMP DP  RH WIND       PRES   REMARKS
LITTLE ROCK    CLEAR     61  55  81 E7        30.02R
N LITTLE ROCK    N/A     65  57  77 E6        30.03R
JACKSONVILLE   CLEAR     60  57  91 E5        30.01S
SEARCY         CLEAR     63  58  83 E6        30.05S
HOT SPRINGS    CLEAR     61  54  77 E7        30.00S
RUSSELLVILLE   CLEAR     65  57  75 E7        29.99R
CLINTON        FAIR      52  50  93 CALM      30.03S FOG
$$

ARZ036-200400-
EAST ARKANSAS

CITY           SKY/WX    TMP DP  RH WIND       PRES   REMARKS
WEST MEMPHIS   MOCLDY    61  54  77 SE6       30.06R
$$

ARZ050-053-066-070-073-200400-
SOUTHWEST ARKANSAS

CITY           SKY/WX    TMP DP  RH WIND       PRES   REMARKS
ARKADELPHIA    FAIR      58  56  93 CALM      30.00R
CAMDEN         CLOUDY    63  50  63 CALM      29.99R
TEXARKANA      MOCLDY    69  57  65 SE6       29.95R
EL DORADO      CLOUDY    66  51  58 E5        29.99R
DE QUEEN       CLOUDY    66  60  81 E9        29.93R
$$

ARZ056-057-069-200400-
SOUTHEAST ARKANSAS

CITY           SKY/WX    TMP DP  RH WIND       PRES   REMARKS
PINE BLUFF     CLEAR     60  55  83 E8        30.02R
STUTTGART      CLEAR     64  54  68 E9        30.04S
MONTICELLO     PTCLDY    65  55  70 E3        30.01S

$$






USA.gov is the U.S. government's official web portal to all federal, state and local government web resources and services.